GW4912 Weather Reports


time (UTC)temp
C
wind
direction
speed
KPH
gust
KPH
rain 1hr
cm
rain 24hr
cm
rain mn
cm
humidity
%
barometer
mb
20260903073323 22 63 0.0 0.0 0.00 0.00 0.00 85 1015.4
20260903072819 22 129 0.0 0.0 0.00 0.00 0.00 85 1015.3
20260903072315 22 32 0.0 0.0 0.00 0.00 0.00 85 1015.1
20260903071812 22 245 0.0 0.0 0.00 0.00 0.00 85 1014.9
20260903071308 22 245 0.0 0.0 0.00 0.00 0.00 85 1014.9
20260903070808 22 142 0.0 0.0 0.00 0.00 0.00 85 1014.9
20260903070303 22 304 0.0 0.0 0.00 0.00 0.00 85 1014.9
20260903065758 22 32 0.0 0.0 0.00 0.00 0.00 86 1014.9
20260903065257 22 32 0.0 0.0 0.00 0.00 0.00 84 1015.1
20260903064756 22 32 0.0 0.0 0.00 0.00 0.00 84 1015.2
20260903064252 23 32 0.0 0.0 0.00 0.00 0.00 82 1015.1
20260903063748 23 32 0.0 0.0 0.00 0.00 0.00 82 1015.3
20260903063243 23 32 0.0 0.0 0.00 0.00 0.00 80 1015.4
20260903062739 23 283 0.0 0.0 0.00 0.00 0.00 80 1015.4
20260903062233 23 286 1.6 1.6 0.00 0.00 0.00 79 1015.7
20260903061730 24 284 0.0 1.6 0.00 0.00 0.00 78 1015.9
20260903061228 24 184 0.0 1.6 0.00 0.00 0.00 77 1015.8
20260903060723 24 148 3.2 3.2 0.00 0.00 0.00 77 1015.8
20260903060218 25 110 3.2 4.8 0.00 0.00 0.00 76 1015.9
20260903055715 25 161 0.0 4.8 0.00 0.00 0.00 75 1016.0
20260903055214 25 117 4.8 6.4 0.00 0.00 0.00 75 1016.0
20260903054709 25 180 3.2 8.0 0.00 0.00 0.00 76 1016.2
20260903054204 25 191 6.4 11.3 0.00 0.00 0.00 76 1016.2
20260903053701 25 96 4.8 11.3 0.00 0.00 0.00 77 1016.5
20260903053155 26 144 8.0 17.7 0.00 0.00 0.00 78 1016.2
20260903052651 26 98 6.4 14.5 0.00 0.00 0.00 80 1016.0
20260903052146 27 68 3.2 6.4 0.00 0.00 0.00 81 1014.8
20260903051641 27 337 3.2 8.0 0.00 0.00 0.00 81 1014.8
20260903051137 27 356 4.8 6.4 0.00 0.00 0.00 81 1014.7
20260903050637 27 337 4.8 6.4 0.00 0.00 0.00 81 1014.7
20260903050132 27 29 3.2 6.4 0.00 0.00 0.00 81 1014.7
20260903045631 27 288 3.2 3.2 0.00 0.00 0.00 81 1014.5
20260903045128 27 333 4.8 4.8 0.00 0.00 0.00 81 1014.4
20260903044623 27 322 3.2 4.8 0.00 0.00 0.00 82 1014.2
20260903044119 26 340 4.8 4.8 0.00 0.00 0.00 82 1014.3
20260903043615 26 322 3.2 4.8 0.00 0.00 0.00 82 1014.3
20260903043114 26 344 4.8 4.8 0.00 0.00 0.00 82 1014.2
20260903042609 26 308 3.2 3.2 0.00 0.00 0.00 81 1014.2
20260903042105 26 308 3.2 3.2 0.00 0.00 0.00 81 1014.2
20260903041602 26 308 3.2 3.2 0.00 0.00 0.00 81 1014.1
20260903041101 26 308 3.2 3.2 0.00 0.00 0.00 81 1014.0
20260903040600 26 308 3.2 3.2 0.00 0.00 0.00 81 1014.1
20260903040057 26 308 3.2 3.2 0.00 0.00 0.00 81 1013.9
20260903035552 26 308 3.2 3.2 0.00 0.00 0.00 81 1013.9
20260903035048 26 308 3.2 3.2 0.00 0.00 0.00 81 1013.9
20260903034543 26 339 0.0 3.2 0.00 0.00 0.00 81 1013.8
20260903034038 26 352 4.8 4.8 0.00 0.00 0.00 80 1013.7
20260903033533 27 2 3.2 6.4 0.00 0.00 0.00 79 1013.5
20260903033028 27 2 3.2 6.4 0.00 0.00 0.00 79 1013.3
20260903032523 -17 0.0 0.0 0.00 0.00 0.00 1013.2
20260903032019 -17 0.0 0.0 0.00 0.00 0.00 1013.3
20260903031518 -17 0.0 0.0 0.00 0.00 0.00 1013.3
20260903031014 27 31 4.8 4.8 0.00 0.00 0.00 78 1013.4
20260903030509 27 31 4.8 4.8 0.00 0.00 0.00 78 1013.5
20260903030005 27 31 4.8 4.8 0.00 0.00 0.00 78 1013.7
20260903025500 27 31 4.8 4.8 0.00 0.00 0.00 78 1013.9
20260903024955 27 31 4.8 4.8 0.00 0.00 0.00 78 1013.9
20260903024454 27 31 4.8 4.8 0.00 0.00 0.00 78 1014.0
20260903023949 27 31 4.8 4.8 0.00 0.00 0.00 78 1014.1
20260903023446 27 31 4.8 4.8 0.00 0.00 0.00 78 1014.3
20260903022941 27 31 4.8 4.8 0.00 0.00 0.00 78 1014.2
20260903022440 27 31 4.8 4.8 0.00 0.00 0.00 78 1014.3
20260903021938 27 31 4.8 4.8 0.00 0.00 0.00 78 1014.4
20260903021434 27 31 4.8 4.8 0.00 0.00 0.00 78 1014.3
20260903020928 27 80 3.2 3.2 0.00 0.00 0.00 77 1014.4
20260903020424 28 346 3.2 3.2 0.00 0.00 0.00 76 1014.3
20260903015918 28 346 3.2 3.2 0.00 0.00 0.00 76 1014.3
20260903015414 28 346 3.2 3.2 0.00 0.00 0.00 76 1014.4
20260903014909 28 346 3.2 3.2 0.00 0.00 0.00 76 1014.5
20260903014403 28 346 3.2 3.2 0.00 0.00 0.00 76 1014.4
20260903013858 28 346 3.2 3.2 0.00 0.00 0.00 76 1014.6
20260903013357 28 346 3.2 3.2 0.00 0.00 0.00 76 1014.6
20260903012857 28 346 3.2 3.2 0.00 0.00 0.00 76 1014.5
20260903012350 27 49 3.2 6.4 0.00 0.00 0.00 77 1014.5
20260903011850 27 49 3.2 6.4 0.00 0.00 0.00 77 1014.4
20260903011350 27 49 3.2 6.4 0.00 0.00 0.00 77 1014.5
20260903010845 27 49 3.2 6.4 0.00 0.00 0.00 77 1014.3
20260903010340 27 49 3.2 6.4 0.00 0.00 0.00 77 1014.2
20260903005838 27 49 3.2 6.4 0.00 0.00 0.00 77 1014.4
20260903005334 28 7 3.2 3.2 0.00 0.00 0.00 76 1014.3
20260903004830 28 7 3.2 3.2 0.00 0.00 0.00 76 1014.2
20260903004325 28 2 1.6 3.2 0.00 0.00 0.00 76 1014.1
20260903003821 28 2 1.6 3.2 0.00 0.00 0.00 76 1014.3
20260903003316 28 2 1.6 3.2 0.00 0.00 0.00 76 1014.1
20260903002815 28 12 0.0 0.0 0.00 0.00 0.00 76 1014.2
20260903002315 28 62 0.0 1.6 0.00 0.00 0.00 75 1014.1
20260903001810 28 62 0.0 1.6 0.00 0.00 0.00 75 1014.1
20260903001306 28 62 0.0 1.6 0.00 0.00 0.00 75 1014.1
20260903000806 -17 0.0 0.0 0.00 0.00 0.00 1014.2
20260903000303 -17 0.0 0.0 0.00 0.00 0.00 1014.1
20260902235758 -17 0.0 0.0 0.00 0.00 0.00 1014.2
20260902235254 -17 0.0 0.0 0.00 0.00 0.00 1014.2
20260902234754 -17 0.0 0.0 0.00 0.00 0.00 1014.0
20260902234253 -17 0.0 0.0 0.00 0.00 0.00 1014.2
20260902233748 31 358 6.4 6.4 0.00 0.00 0.00 66 1014.2
20260902233248 31 358 6.4 6.4 0.00 0.00 0.00 66 1014.2
20260902232746 31 358 6.4 6.4 0.00 0.00 0.00 66 1014.1
20260902232240 31 358 6.4 6.4 0.00 0.00 0.00 66 1014.4
20260902231740 31 358 6.4 6.4 0.00 0.00 0.00 66 1014.2
20260902231235 31 358 6.4 6.4 0.00 0.00 0.00 66 1014.2
20260902230735 31 358 6.4 6.4 0.00 0.00 0.00 66 1014.0
20260902230234 31 358 6.4 6.4 0.00 0.00 0.00 66 1014.0
20260902225729 31 358 6.4 6.4 0.00 0.00 0.00 66 1013.9
20260902225224 31 358 6.4 6.4 0.00 0.00 0.00 66 1013.9
20260902224722 31 358 6.4 6.4 0.00 0.00 0.00 66 1014.0
20260902224218 31 358 6.4 6.4 0.00 0.00 0.00 66 1014.0
20260902223714 32 335 6.4 6.4 0.00 0.00 0.00 63 1013.9
20260902223213 32 335 6.4 6.4 0.00 0.00 0.00 63 1014.1
20260902222712 32 335 6.4 6.4 0.00 0.00 0.00 63 1014.2
20260902222207 32 335 6.4 6.4 0.00 0.00 0.00 63 1014.0
20260902221702 32 335 6.4 6.4 0.00 0.00 0.00 63 1014.1
20260902221200 32 335 6.4 6.4 0.00 0.00 0.00 63 1013.9
20260902220656 33 36 3.2 6.4 0.00 0.00 0.00 62 1013.9
20260902220151 33 36 3.2 6.4 0.00 0.00 0.00 62 1014.1
20260902215647 33 36 3.2 6.4 0.00 0.00 0.00 62 1014.1
20260902215142 33 36 3.2 6.4 0.00 0.00 0.00 62 1014.0
20260902214637 33 313 4.8 8.0 0.00 0.00 0.00 61 1014.3
20260902214136 33 4 12.9 14.5 0.00 0.00 0.00 59 1014.2
20260902213632 33 4 12.9 14.5 0.00 0.00 0.00 59 1014.0
20260902213131 33 4 12.9 14.5 0.00 0.00 0.00 59 1014.3
20260902212626 33 4 12.9 14.5 0.00 0.00 0.00 59 1014.1
20260902212123 33 28 6.4 14.5 0.00 0.00 0.00 63 1014.1
20260902211619 33 0 9.7 9.7 0.00 0.00 0.00 58 1014.4
20260902211114 33 0 9.7 9.7 0.00 0.00 0.00 58 1014.3
20260902210613 33 5 6.4 14.5 0.00 0.00 0.00 59 1014.5
20260902210109 33 5 6.4 14.5 0.00 0.00 0.00 59 1014.6
20260902205607 33 44 9.7 11.3 0.00 0.00 0.00 62 1014.5
20260902205103 33 44 9.7 11.3 0.00 0.00 0.00 62 1014.5
20260902204602 34 354 6.4 6.4 0.00 0.00 0.00 60 1014.6
20260902204057 33 6 6.4 8.0 0.00 0.00 0.00 58 1014.8
20260902203552 33 6 6.4 8.0 0.00 0.00 0.00 58 1014.6
20260902203051 35 334 4.8 8.0 0.00 0.00 0.00 60 1014.7
20260902202547 34 306 3.2 8.0 0.00 0.00 0.00 58 1014.7
20260902202044 34 306 3.2 8.0 0.00 0.00 0.00 58 1014.7
20260902201539 34 306 3.2 8.0 0.00 0.00 0.00 58 1014.6
20260902201033 33 6 6.4 9.7 0.00 0.00 0.00 58 1014.9
20260902200528 33 6 6.4 9.7 0.00 0.00 0.00 58 1014.9
20260902200025 33 6 6.4 9.7 0.00 0.00 0.00 58 1014.9
20260902195520 33 6 6.4 9.7 0.00 0.00 0.00 58 1014.9
20260902195018 33 6 6.4 9.7 0.00 0.00 0.00 58 1015.0
20260902194518 34 15 12.9 14.5 0.00 0.00 0.00 58 1015.1
20260902194014 34 34 6.4 9.7 0.00 0.00 0.00 63 1015.1
20260902193509 34 34 6.4 9.7 0.00 0.00 0.00 63 1015.1
20260902193009 34 328 3.2 4.8 0.00 0.00 0.00 64 1015.2
20260902192502 33 319 4.8 6.4 0.00 0.00 0.00 64 1015.1
20260902192002 33 319 4.8 6.4 0.00 0.00 0.00 64 1015.6
20260902191456 33 319 4.8 6.4 0.00 0.00 0.00 64 1015.3
20260902190951 33 319 4.8 6.4 0.00 0.00 0.00 64 1015.4
20260902190447 33 319 4.8 6.4 0.00 0.00 0.00 64 1015.4
20260902185942 33 319 4.8 6.4 0.00 0.00 0.00 64 1015.6
20260902185438 33 319 4.8 6.4 0.00 0.00 0.00 64 1015.3
20260902184933 33 319 4.8 6.4 0.00 0.00 0.00 64 1015.6
20260902184428 34 282 4.8 4.8 0.00 0.00 0.00 63 1015.7
20260902183924 33 11 11.3 14.5 0.00 0.00 0.00 61 1015.8
20260902183420 33 11 11.3 14.5 0.00 0.00 0.00 61 1015.8
20260902182915 33 11 11.3 14.5 0.00 0.00 0.00 61 1016.1
20260902182411 33 11 11.3 14.5 0.00 0.00 0.00 61 1016.0
20260902181908 33 11 11.3 14.5 0.00 0.00 0.00 61 1016.0
20260902181403 32 356 3.2 8.0 0.00 0.00 0.00 65 1016.2
20260902180857 33 13 4.8 8.0 0.00 0.00 0.00 63 1016.0
20260902180353 32 334 3.2 8.0 0.00 0.00 0.00 64 1016.3
20260902175848 33 340 6.4 8.0 0.00 0.00 0.00 65 1016.0
20260902175343 33 319 3.2 6.4 0.00 0.00 0.00 63 1016.2
20260902174838 33 285 1.6 3.2 0.00 0.00 0.00 64 1016.5
20260902174335 33 18 4.8 6.4 0.00 0.00 0.00 64 1016.4
20260902173825 33 18 4.8 6.4 0.00 0.00 0.00 64 1016.3
20260902173325 33 18 4.8 6.4 0.00 0.00 0.00 64 1016.4
20260902172819 32 17 4.8 4.8 0.00 0.00 0.00 67 1016.6
20260902172318 32 17 4.8 4.8 0.00 0.00 0.00 67 1016.8
20260902171808 32 295 1.6 3.2 0.00 0.00 0.00 66 1016.8
20260902171302 33 39 4.8 6.4 0.00 0.00 0.00 63 1016.7
20260902170754 33 39 4.8 6.4 0.00 0.00 0.00 63 1016.7
20260902170249 33 39 4.8 6.4 0.00 0.00 0.00 63 1017.0
20260902165745 33 350 6.4 6.4 0.00 0.00 0.00 63 1017.1
20260902165243 32 7 3.2 4.8 0.00 0.00 0.00 65 1016.9
20260902164738 32 18 4.8 6.4 0.00 0.00 0.00 68 1016.8
20260902164232 32 353 1.6 3.2 0.00 0.00 0.00 67 1017.0
20260902163727 31 16 3.2 6.4 0.00 0.00 0.00 69 1017.1
20260902163227 31 16 3.2 6.4 0.00 0.00 0.00 69 1016.9
20260902162725 31 16 3.2 6.4 0.00 0.00 0.00 69 1017.1
20260902162220 32 39 6.4 6.4 0.00 0.00 0.00 68 1017.0
20260902161715 32 39 1.6 4.8 0.00 0.00 0.00 69 1017.0
20260902161211 32 314 3.2 4.8 0.00 0.00 0.00 68 1016.9
20260902160708 32 33 3.2 6.4 0.00 0.00 0.00 69 1016.9
20260902160202 31 327 3.2 4.8 0.00 0.00 0.00 74 1017.1
20260902155700 31 34 3.2 6.4 0.00 0.00 0.00 72 1017.1
20260902155159 32 234 1.6 3.2 0.00 0.00 0.00 71 1017.2
20260902154655 31 31 4.8 6.4 0.00 0.00 0.00 72 1017.3
20260902154154 31 21 4.8 6.4 0.00 0.00 0.00 72 1017.5
20260902153654 31 278 1.6 6.4 0.00 0.00 0.00 72 1017.3
20260902153149 31 41 4.8 6.4 0.00 0.00 0.00 71 1017.4
20260902152645 31 18 3.2 4.8 0.00 0.00 0.00 73 1017.2
20260902152141 30 313 4.8 8.0 0.00 0.00 0.00 72 1017.3
20260902151636 30 329 3.2 4.8 0.00 0.00 0.00 73 1017.1
20260902151130 30 337 3.2 8.0 0.00 0.00 0.00 72 1017.3
20260902150626 30 326 3.2 6.4 0.00 0.00 0.00 75 1017.3
20260902150121 30 323 3.2 6.4 0.00 0.00 0.00 72 1017.3
20260902145616 30 5 3.2 6.4 0.00 0.00 0.00 73 1017.4
20260902145115 30 278 0.0 4.8 0.00 0.00 0.00 73 1017.2
20260902144613 30 5 4.8 4.8 0.00 0.00 0.00 74 1017.3
20260902144112 30 67 1.6 6.4 0.00 0.00 0.00 76 1017.1
20260902143607 30 2 3.2 4.8 0.00 0.00 0.00 75 1017.1
20260902143103 29 9 1.6 6.4 0.00 0.00 0.00 77 1017.1
20260902142559 28 0 3.2 8.0 0.00 0.00 0.00 77 1017.2
20260902142054 28 347 4.8 8.0 0.00 0.00 0.00 78 1017.2
20260902141554 28 349 3.2 9.7 0.00 0.00 0.00 79 1017.1
20260902141049 28 353 1.6 6.4 0.00 0.00 0.00 80 1017.2
20260902140543 28 53 3.2 6.4 0.00 0.00 0.00 81 1016.8
20260902140039 28 25 9.7 9.7 0.00 0.00 0.00 81 1016.9
20260902135533 27 317 3.2 8.0 0.00 0.00 0.00 81 1017.0
20260902135028 27 328 3.2 8.0 0.00 0.00 0.00 82 1016.9
20260902134523 27 347 4.8 9.7 0.00 0.00 0.00 82 1016.8
20260902134017 27 95 3.2 8.0 0.00 0.00 0.00 83 1016.6
20260902133512 27 5 4.8 11.3 0.00 0.00 0.00 82 1016.5
20260902133012 27 302 4.8 8.0 0.00 0.00 0.00 83 1016.7
20260902132507 27 319 3.2 6.4 0.00 0.00 0.00 83 1016.7
20260902132002 27 354 4.8 6.4 0.00 0.00 0.00 84 1016.6
20260902131459 27 358 3.2 8.0 0.00 0.00 0.00 84 1016.7
20260902130958 26 307 3.2 9.7 0.00 0.00 0.00 85 1016.8
20260902130454 26 338 3.2 8.0 0.00 0.00 0.00 85 1016.6
20260902125949 26 356 1.6 9.7 0.00 0.00 0.00 86 1016.7
20260902125445 26 335 1.6 8.0 0.00 0.00 0.00 86 1016.6
20260902124941 26 301 4.8 6.4 0.00 0.00 0.00 87 1016.6
20260902124437 26 317 4.8 9.7 0.00 0.00 0.00 87 1016.7
20260902123931 26 331 3.2 6.4 0.00 0.00 0.00 88 1016.8
20260902123428 25 358 3.2 4.8 0.00 0.00 0.00 89 1016.7
20260902122926 25 344 3.2 6.4 0.00 0.00 0.00 90 1016.8
20260902122422 25 346 1.6 4.8 0.00 0.00 0.00 90 1016.7
20260902121918 25 346 3.2 6.4 0.00 0.00 0.00 90 1016.6
20260902121412 25 353 1.6 6.4 0.00 0.00 0.00 90 1016.7
20260902120908 25 13 3.2 6.4 0.00 0.00 0.00 91 1016.8
20260902120404 24 24 4.8 6.4 0.00 0.00 0.00 92 1016.7
20260902115903 24 8 3.2 4.8 0.00 0.00 0.00 92 1016.7
20260902115359 23 359 3.2 4.8 0.00 0.00 0.00 92 1016.7
20260902114856 23 19 3.2 3.2 0.00 0.00 0.00 93 1016.5
20260902114351 23 25 3.2 4.8 0.00 0.00 0.00 93 1016.4
20260902113851 23 17 3.2 3.2 0.00 0.00 0.00 93 1016.6
20260902113347 23 12 3.2 6.4 0.00 0.00 0.00 93 1016.4
20260902112846 23 17 3.2 8.0 0.00 0.00 0.00 94 1016.5
20260902112343 23 39 3.2 3.2 0.00 0.00 0.00 94 1016.4
20260902111838 23 15 3.2 4.8 0.00 0.00 0.00 94 1016.5
20260902111335 23 8 3.2 3.2 0.00 0.00 0.00 94 1016.1
20260902110830 23 52 3.2 4.8 0.00 0.00 0.00 94 1016.2
20260902110326 23 27 4.8 4.8 0.00 0.00 0.00 94 1016.1
20260902105826 23 19 3.2 3.2 0.00 0.00 0.00 94 1016.0
20260902105321 23 0 3.2 4.8 0.00 0.00 0.00 94 1016.0
20260902104816 -17 0.0 0.0 0.00 0.00 0.00 1016.0
20260902104312 23 348 3.2 3.2 0.00 0.00 0.00 94 1016.0
20260902103811 23 348 3.2 3.2 0.00 0.00 0.00 94 1016.0
20260902103306 23 348 3.2 3.2 0.00 0.00 0.00 94 1016.1
20260902102801 23 348 3.2 3.2 0.00 0.00 0.00 94 1016.0
20260902102259 23 348 3.2 3.2 0.00 0.00 0.00 94 1015.9
20260902101754 23 348 3.2 3.2 0.00 0.00 0.00 94 1016.2
20260902101250 23 348 3.2 3.2 0.00 0.00 0.00 94 1015.8
20260902100748 23 348 3.2 3.2 0.00 0.00 0.00 94 1016.0
20260902100243 23 348 3.2 3.2 0.00 0.00 0.00 94 1016.1
20260902095737 23 348 3.2 3.2 0.00 0.00 0.00 94 1015.9
20260902095232 23 348 3.2 3.2 0.00 0.00 0.00 94 1016.2
20260902094726 23 348 3.2 3.2 0.00 0.00 0.00 94 1016.0
20260902094223 23 19 3.2 4.8 0.00 0.00 0.00 94 1016.0
20260902093721 23 19 3.2 4.8 0.00 0.00 0.00 94 1016.1
20260902093217 23 9 3.2 3.2 0.00 0.00 0.00 94 1016.4
20260902092711 23 8 3.2 3.2 0.00 0.00 0.00 95 1016.0
20260902092207 23 8 3.2 3.2 0.00 0.00 0.00 95 1016.1
20260902091701 23 8 3.2 3.2 0.00 0.00 0.00 95 1016.3
20260902091158 23 8 3.2 3.2 0.00 0.00 0.00 95 1016.0
20260902090654 23 8 3.2 3.2 0.00 0.00 0.00 95 1016.2
20260902090153 23 8 3.2 3.2 0.00 0.00 0.00 95 1016.0
20260902085652 23 8 3.2 3.2 0.00 0.00 0.00 95 1016.2
20260902085147 23 42 1.6 1.6 0.00 0.00 0.00 95 1016.3
20260902084643 23 42 1.6 1.6 0.00 0.00 0.00 95 1016.3
20260902084139 23 50 3.2 3.2 0.00 0.00 0.00 95 1016.3
20260902083634 23 25 4.8 4.8 0.00 0.00 0.00 94 1016.4
20260902083133 23 38 1.6 3.2 0.00 0.00 0.00 94 1016.2
20260902082629 23 28 1.6 3.2 0.00 0.00 0.00 94 1016.2
20260902082126 23 359 1.6 1.6 0.00 0.00 0.00 94 1016.4
20260902081622 23 359 1.6 1.6 0.00 0.00 0.00 94 1016.2
20260902081122 23 13 1.6 3.2 0.00 0.00 0.00 94 1016.1
20260902080618 23 11 3.2 3.2 0.00 0.00 0.00 94 1016.0
20260902080114 23 355 3.2 3.2 0.00 0.00 0.00 94 1016.1
20260902075613 23 33 3.2 3.2 0.00 0.00 0.00 95 1015.9
20260902075110 23 33 3.2 4.8 0.00 0.00 0.00 95 1015.7
20260902074605 23 290 3.2 3.2 0.00 0.00 0.00 95 1015.9
20260902074100 23 356 1.6 3.2 0.00 0.00 0.00 95 1015.9